Regional Weather Roundup
Issued by NWS

Home | Current Version | Previous Version | Graphics & Text | Print | Product List | Glossary On
Versions: 1 2 3 4 5 6 7 8 9 10 11 12 13 14 15 16 17 18 19 20 21 22 23 24 25 26 27 28
000
ASUS45 KCYS 232210
RWRWY

WYOMING REGIONAL WEATHER ROUNDUP
NATIONAL WEATHER SERVICE CHEYENNE WY
400 PM MDT TUE AUG 23 2016

NOTE:  "FAIR" INDICATES FEW OR NO CLOUDS BELOW 12,000 FEET
WITH NO SIGNIFICANT WEATHER AND/OR OBSTRUCTIONS TO VISIBILITY.

WYZ001-232300-
YELLOWSTONE NATIONAL PARK

CITY           SKY/WX    TMP DP  RH WIND       PRES   REMARKS
LK YELLOWSTONE   N/A     65  10  11 MISG      30.23S
W YELLOWSTONE  NOT AVBL

$$
WYZ002>013-054>058-071-098>099-232300-
NORTHERN WYOMING

CITY           SKY/WX    TMP DP  RH WIND       PRES   REMARKS
JACKSON        SUNNY     70  19  14 W6G16     30.16S
CODY           FAIR      72  34  25 NW3       30.05R
GREYBULL       FAIR      82  13   7 VRB5      29.96S
WORLAND        FAIR      81  19  10 N12       29.97F
SHERIDAN       FAIR      75  29  18 E3        30.03S
BUFFALO        FAIR      73  26  17 S6        30.08S
GILLETTE       FAIR      75  26  16 N5        30.04R
HULETT         FAIR      75  28  17 NW3       30.05R
NEWCASTLE      FAIR      77  21  12 NW14G22   30.02S

$$
WYZ014>020-022>026-101>103-232300-
CENTRAL WYOMING

CITY           SKY/WX    TMP DP  RH WIND       PRES   REMARKS
BIG PINEY      FAIR      77  16  10 NW21G33   30.17S
PINEDALE       FAIR      73  16  11 W18G28    30.18S
DUBOIS         FAIR      72  16  12 NW20G33   30.14R
LANDER         FAIR      84  16   8 NW14G26   30.01F
RIVERTON       FAIR      86  11   6 W12G23    30.00F
CASPER         FAIR      81  16   9 VRB3      30.02F
DOUGLAS        FAIR      82  18   9 NE7       30.03F

$$
WYZ021-027>030-104>119-232300-
SOUTHERN WYOMING

CITY           SKY/WX    TMP DP  RH WIND       PRES   REMARKS
EVANSTON       FAIR      76  26  15 W24G39    30.23R
FORT BRIDGER   MOCLDY    80  26  14 W18G30    30.22S
ROCK SPRINGS   FAIR      77  23  13 W20G33    30.15F
DIXON          FAIR      81  26  13 W10       30.17F
RAWLINS        FAIR      79  15   9 W12G21    30.14F
SARATOGA       FAIR      77  21  12 SW12G20   30.19S
LARAMIE        FAIR      76  21  12 W9G21     30.18S
CHEYENNE       FAIR      81  21  11 N14G20    30.11S
TORRINGTON     FAIR      87  17   7 N9        29.98S
PINE BLUFFS    FAIR      81  25  12 NE14      30.05S

$$




USA.gov is the U.S. government's official web portal to all federal, state and local government web resources and services.